www.pogodaiklimat.ru

Погода и климат >> Архив погоды >> Австралия >> Wyndham Aero


ПОГОДА в Wyndham Aero

  • Прогноз погоды в Wyndham Aero
  • Монитор погоды в Wyndham Aero
  • Климат города

АРХИВ ПОГОДЫ в Wyndham Aero

Время (UTC), дата Ветер
(напр.,м/с)
 
Видим.   Явления Облачность Т
(С)
Тd
(С)
f
(%)
Тe
(С)
Тes
(С)
Комфортность P
(гПа)
Po
(гПа)
Тmin
(С)
Tmax
(С)
R
(мм)
R24
(мм)
S
(см)
01 14.10 В 4 н/о н/о +38.2 +19.1 33 +43 +43 опасность
перегрева
1007.9 1007.4 +27.9
02 14.10 В 4 н/о н/о +38.0 +18.4 32 +42 +42 опасность
перегрева
1007.3 1006.8
03 14.10 СВ 4 н/о н/о +40.1 +16.9 26 +42 +42 опасность
перегрева
1006.6 1006.1
04 14.10 СВ 3 н/о н/о +39.7 +17.2 27 +42 +42 опасность
перегрева
1005.3 1004.8
05 14.10 В 3 н/о н/о +39.1 +17.8 29 +42 +42 опасность
перегрева
1004.3 1003.8
06 14.10 С 8 н/о н/о +39.4 +19.6 32 +44 +44 опасность
перегрева
1003.5 1003.0
07 14.10 С 9 н/о н/о +37.8 +20.6 37 +44 +44 опасность
перегрева
1003.6 1003.1
08 14.10 В 8 н/о н/о +35.2 +18.3 37 +39 +39 очень
душно
1004.6 1004.1
09 14.10 З 8 н/о н/о +34.4 +22.3 49 +43 +43 опасность
перегрева
1005.4 1004.9
10 14.10 С 3 н/о в посл. час дождь {туман} н/о +29.5 +21.2 61 +37 +37 очень
душно
1005.2 1004.7
11 14.10 Ю 3 н/о н/о +29.6 +22.3 65 +39 +39 очень
душно
1005.6 1005.1
12 14.10 В 3 н/о н/о +29.4 +22.9 68 +39 +39 очень
душно
1006.1 1005.6
13 14.10 В 3 н/о {туман} н/о +28.6 +23.3 73 +39 +39 очень
душно
1006.4 1005.9 +42.5
14 14.10 В 4 н/о н/о +28.4 +24.2 78 +40 +40 очень
душно
1006.7 1006.2
15 14.10 В 4 н/о н/о +28.7 +22.9 71 +38 +38 очень
душно
1006.6 1006.1
16 14.10 В 4 н/о н/о +28.4 +23.3 74 +38 +38 очень
душно
1006.5 1006.0
17 14.10 ЮВ 3 н/о н/о +27.4 +23.6 80 +37 +37 очень
душно
1005.8 1005.3
18 14.10 ЮВ 3 н/о н/о +27.0 +24.1 84 +37 +37 очень
душно
1005.6 1005.1
19 14.10 штиль 0 н/о н/о +27.0 +24.6 87 +38 +38 очень
душно
1005.7 1005.2
20 14.10 СВ 2 н/о н/о +26.9 +25.3 91 +39 +39 очень
душно
1006.5 1006.0
21 14.10 ЮВ 4 н/о н/о +26.4 +24.4 89 +37 +37 очень
душно
1007.2 1006.7
22 14.10 В 3 н/о н/о +28.2 +25.0 83 +41 +41 опасность
перегрева
1008.0 1007.5
23 14.10 ЮВ 3 н/о н/о +30.5 +24.6 71 +43 +43 опасность
перегрева
1008.3 1007.8
00 15.10 СВ 1 н/о н/о +33.1 +23.4 57 +44 +44 опасность
перегрева
1008.3 1007.8
01 15.10 З 2 н/о н/о +34.4 +22.8 51 +44 +44 опасность
перегрева
1008.2 1007.7 +26.3
02 15.10 ЮЗ 3 н/о н/о +36.3 +20.9 41 +43 +43 опасность
перегрева
1007.6 1007.1
03 15.10 З 5 н/о н/о +38.1 +19.0 33 +43 +43 опасность
перегрева
1006.5 1006.0
04 15.10 З 4 н/о н/о +38.3 +18.7 32 +42 +42 опасность
перегрева
1005.4 1004.9
05 15.10 СЗ 3 н/о н/о +39.1 +17.2 28 +42 +42 опасность
перегрева
1004.3 1003.8
06 15.10 З 4 н/о н/о +38.8 +17.0 28 +41 +41 опасность
перегрева
1003.5 1003.0
07 15.10 С 3 н/о н/о +40.6 +16.7 25 +43 +43 опасность
перегрева
1003.0 1002.5
08 15.10 СЗ 3 н/о н/о +40.2 +17.0 26 +43 +43 опасность
перегрева
1002.6 1002.1
09 15.10 С 6 н/о н/о +36.6 +18.6 35 +41 +41 опасность
перегрева
1003.3 1002.8
10 15.10 С 5 н/о н/о +34.7 +20.3 43 +41 +41 опасность
перегрева
1004.3 1003.8
11 15.10 С 7 н/о н/о +33.2 +20.7 48 +40 +40 очень
душно
1005.3 1004.8
12 15.10 ЮЗ 6 н/о н/о +22.6 +22.6 100 +31 +31 очень
душно
1008.7 1008.2
13 15.10 З 4 н/о туман местами н/о +26.7 +26.7 100 +41 +41 опасность
перегрева
1007.0 1006.5 +41.0
14 15.10 З 2 н/о н/о +25.9 +22.2 80 +34 +34 очень
душно
1008.3 1007.8
15 15.10 ЮЗ 4 н/о н/о +27.1 +24.0 83 +37 +37 очень
душно
1008.0 1007.5
16 15.10 ЮЗ 4 н/о {туман} н/о +27.6 +23.2 77 +37 +37 очень
душно
1007.4 1006.9
17 15.10 З 3 н/о н/о +28.0 +23.4 76 +38 +38 очень
душно
1006.7 1006.2
18 15.10 З 3 н/о н/о +28.4 +22.6 71 +38 +38 очень
душно
1006.2 1005.7
19 15.10 ЮЗ 3 н/о {туман} н/о +27.9 +22.8 74 +37 +37 очень
душно
1006.3 1005.8
20 15.10 З 3 н/о н/о +27.4 +23.6 80 +37 +37 очень
душно
1006.8 1006.3
21 15.10 ЮЗ 3 н/о н/о +27.5 +22.0 72 +36 +36 очень
душно
1007.1 1006.6
22 15.10 З 3 н/о н/о +28.6 +22.8 71 +38 +38 очень
душно
1007.8 1007.3
23 15.10 СЗ 3 н/о н/о +30.8 +21.9 59 +39 +39 очень
душно
1008.5 1008.0
00 16.10 З 3 н/о н/о +32.7 +21.2 51 +40 +40 очень
душно
1008.1 1007.6
01 16.10 З 3 н/о {туман} н/о +34.4 +19.6 42 +40 +40 очень
душно
1007.5 1007.0 +21.3
02 16.10 З 3 н/о н/о +36.0 +15.7 30 +38 +38 очень
душно
1006.5 1006.0
03 16.10 ЮЗ 3 н/о н/о +38.8 +12.5 21 +38 +38 очень
жарко
1005.1 1004.6
04 16.10 Ю 3 н/о н/о +39.9 +14.8 23 +41 +41 опасность
перегрева
1004.0 1003.5
05 16.10 З 3 н/о н/о +40.7 +11.7 18 +40 +40 очень
жарко
1003.0 1002.5
06 16.10 СВ 3 н/о н/о +40.3 +10.6 17 +39 +39 очень
жарко
1002.5 1002.0
07 16.10 Ю 2 н/о н/о +40.9 +8.1 14 +39 +39 очень
жарко
1002.1 1001.6
08 16.10 Ю 5 н/о н/о +40.8 +7.0 13 +38 +38 очень
жарко
1001.8 1001.3
09 16.10 С 6 н/о н/о +36.7 +17.8 33 +40 +40 очень
душно
1002.5 1002.0
10 16.10 С 7 н/о н/о +32.8 +22.3 54 +42 +42 опасность
перегрева
1003.5 1003.0
11 16.10 С 7 н/о н/о +32.5 +17.9 42 +37 +37 очень
душно
1004.3 1003.8
12 16.10 Ю 3 н/о н/о +32.3 +17.0 40 +36 +36 очень
душно
1005.3 1004.8
13 16.10 ЮВ 5 н/о н/о +30.2 +19.6 53 +36 +36 очень
душно
1005.7 1005.2 +42.1
14 16.10 В 4 н/о н/о +28.4 +20.9 64 +36 +36 очень
душно
1005.8 1005.3
15 16.10 В 5 н/о н/о +28.2 +21.7 68 +36 +36 очень
душно
1005.3 1004.8
16 16.10 В 4 н/о н/о +27.7 +21.7 70 +36 +36 очень
душно
1004.8 1004.3
17 16.10 В 4 н/о н/о +27.1 +21.8 73 +35 +35 очень
душно
1004.8 1004.3
18 16.10 В 3 н/о н/о +27.1 +21.8 73 +35 +35 очень
душно
1004.7 1004.2
19 16.10 В 4 н/о н/о +27.0 +21.5 72 +34 +34 очень
душно
1005.1 1004.6
20 16.10 В 4 н/о н/о +26.2 +21.0 73 +33 +33 очень
душно
1005.5 1005.0
21 16.10 В 3 н/о н/о +25.2 +21.1 78 +32 +32 очень
душно
1006.0 1005.5
22 16.10 ЮВ 5 н/о н/о +28.2 +21.5 67 +36 +36 очень
душно
1006.5 1006.0
23 16.10 ЮЗ 1 н/о н/о +30.3 +21.1 58 +38 +38 очень
душно
1007.4 1006.9
00 17.10 В 2 н/о н/о +33.4 +19.1 43 +39 +39 очень
душно
1007.4 1006.9
01 17.10 В 3 н/о н/о +36.4 +16.5 31 +39 +39 очень
душно
1007.3 1006.8 +24.7
02 17.10 В 5 н/о н/о +38.8 +12.5 21 +38 +38 очень
жарко
1006.3 1005.8
03 17.10 В 6 н/о н/о +39.8 +7.3 14 +37 +37 очень
жарко
1005.5 1005.0
04 17.10 СВ 4 н/о н/о +40.5 +6.7 13 +38 +38 очень
жарко
1004.2 1003.7
05 17.10 В 6 н/о н/о +42.0 +6.7 12 +39 +39 очень
жарко
1003.1 1002.6
06 17.10 В 3 н/о н/о +41.2 +6.1 12 +39 +39 очень
жарко
1002.4 1001.9
07 17.10 В 5 н/о н/о +41.5 +3.7 10 +38 +38 очень
жарко
1002.0 1001.5
08 17.10 С 6 н/о н/о +38.5 +15.6 26 +40 +40 очень
душно
1001.8 1001.3
09 17.10 С 7 н/о н/о +36.0 +11.1 22 +42 +42 опасность
перегрева
1003.1 1002.6
10 17.10 С 5 н/о н/о +32.8 +21.0 50 +40 +40 очень
душно
1003.9 1003.4
11 17.10 С 5 н/о н/о +31.8 +21.3 54 +40 +40 очень
душно
1004.5 1004.0
12 17.10 С 3 н/о н/о +32.2 +18.4 44 +37 +37 очень
душно
1005.2 1004.7
13 17.10 СВ 2 н/о н/о +30.6 +21.7 59 +39 +39 очень
душно
1005.8 1005.3 +42.4
14 17.10 В 4 н/о н/о +29.0 +23.0 70 +39 +39 очень
душно
1006.2 1005.7
15 17.10 В 3 н/о н/о +28.4 +24.0 77 +39 +39 очень
душно
1006.1 1005.6
16 17.10 В 4 н/о н/о +28.1 +24.7 82 +40 +40 очень
душно
1005.7 1005.2
17 17.10 В 3 н/о н/о +27.4 +24.8 86 +39 +39 очень
душно
1005.3 1004.8
18 17.10 СВ 1 н/о н/о +27.0 +25.0 89 +39 +39 очень
душно
1005.1 1004.6
19 17.10 ЮВ 3 н/о н/о +26.0 +24.0 89 +36 +36 очень
душно
1005.3 1004.8
20 17.10 В 3 н/о н/о +26.3 +24.2 88 +37 +37 очень
душно
1005.7 1005.2
21 17.10 В 1 н/о н/о +26.0 +24.0 89 +36 +36 очень
душно
1006.3 1005.8
22 17.10 В 4 н/о н/о +27.4 +24.8 86 +39 +39 очень
душно
1007.0 1006.5
23 17.10 ЮВ 4 н/о н/о +29.5 +23.9 72 +41 +41 опасность
перегрева
1007.8 1007.3
00 18.10 ЮВ 4 н/о н/о +32.2 +22.6 57 +42 +42 опасность
перегрева
1008.2 1007.7
01 18.10 ЮВ 3 н/о н/о +34.2 +21.9 49 +43 +43 опасность
перегрева
1007.7 1007.2 +25.7
02 18.10 ЮЗ 3 н/о н/о +36.9 +20.6 39 +43 +43 опасность
перегрева
1007.0 1006.5
03 18.10 С 3 н/о н/о +39.6 +13.9 22 +40 +40 очень
душно
1005.8 1005.3
04 18.10 В 5 н/о н/о +40.7 +10.0 16 +39 +39 очень
жарко
1004.5 1004.0
05 18.10 СВ 4 н/о н/о +41.6 +9.7 15 +40 +40 очень
жарко
1003.6 1003.1
06 18.10 В 6 н/о н/о +42.8 +7.3 12 +40 +40 очень
жарко
1002.7 1002.2
07 18.10 СВ 6 н/о н/о +40.9 +10.1 16 +39 +39 очень
жарко
1002.3 1001.8
08 18.10 С 4 н/о н/о +38.3 +20.1 35 +44 +44 опасность
перегрева
1002.5 1002.0
09 18.10 С 7 н/о н/о +34.2 +13.6 29 +46 +46 опасность
перегрева
1003.4 1002.9
10 18.10 С 6 н/о н/о +32.5 +23.4 59 +43 +43 опасность
перегрева
1004.4 1003.9
11 18.10 ЮВ 2 н/о н/о +31.6 +23.2 61 +42 +42 опасность
перегрева
1005.5 1005.0
12 18.10 С 5 н/о н/о +31.0 +23.1 63 +41 +41 опасность
перегрева
1006.2 1005.7
13 18.10 СВ 3 н/о н/о +30.4 +24.3 70 +42 +42 опасность
перегрева
1007.2 1006.7 +43.3
14 18.10 СВ 5 н/о н/о +29.2 +25.8 82 +44 +44 опасность
перегрева
1007.4 1006.9
15 18.10 СВ 2 н/о н/о +29.1 +25.9 83 +44 +44 опасность
перегрева
1007.0 1006.5
16 18.10 СВ 3 н/о н/о +28.9 +25.9 84 +43 +43 опасность
перегрева
1006.7 1006.2
17 18.10 В 3 н/о н/о +28.4 +25.8 86 +42 +42 опасность
перегрева
1006.2 1005.7
18 18.10 В 3 н/о н/о +28.1 +25.5 86 +41 +41 опасность
перегрева
1006.2 1005.7
19 18.10 ЮВ 4 н/о н/о +27.7 +25.5 88 +41 +41 опасность
перегрева
1006.4 1005.9
20 18.10 СВ 2 н/о н/о +26.8 +25.6 93 +39 +39 очень
душно
1006.8 1006.3
21 18.10 В 2 н/о н/о +26.5 +25.3 93 +38 +38 очень
душно
1007.4 1006.9
22 18.10 ЮВ 3 н/о н/о +28.2 +25.8 87 +42 +42 опасность
перегрева
1008.1 1007.6
23 18.10 В 4 н/о н/о +30.3 +25.8 77 +45 +45 опасность
перегрева
1009.0 1008.5
00 19.10 СВ 3 н/о н/о +32.6 +25.4 66 +47 +47 опасность
перегрева
1009.4 1008.9
01 19.10 СВ 4 н/о н/о +34.3 +23.3 53 +45 +45 опасность
перегрева
1009.5 1009.0 +26.2
02 19.10 СВ 5 н/о н/о +35.5 +22.4 47 +45 +45 опасность
перегрева
1009.0 1008.5
03 19.10 С 6 н/о н/о +35.9 +22.1 45 +44 +44 опасность
перегрева
1008.4 1007.9
04 19.10 С 6 н/о н/о +37.8 +21.4 39 +45 +45 опасность
перегрева
1007.5 1007.0
05 19.10 С 7 н/о н/о +38.0 +21.2 38 +45 +45 опасность
перегрева
1006.5 1006.0
06 19.10 С 8 н/о н/о +37.2 +20.1 37 +43 +43 опасность
перегрева
1005.6 1005.1
07 19.10 С 6 н/о н/о +37.4 +19.8 36 +43 +43 опасность
перегрева
1005.3 1004.8
08 19.10 С 6 н/о н/о +36.8 +20.1 38 +43 +43 опасность
перегрева
1005.3 1004.8
09 19.10 С 5 н/о н/о +35.4 +19.7 40 +41 +41 опасность
перегрева
1006.2 1005.7
10 19.10 С 8 н/о н/о +31.9 +22.9 59 +42 +42 опасность
перегрева
1007.1 1006.6
11 19.10 С 5 н/о н/о +31.2 +23.0 62 +41 +41 опасность
перегрева
1008.0 1007.5
12 19.10 Ю 2 н/о н/о +31.5 +22.5 59 +41 +41 опасность
перегрева
1008.9 1008.4
13 19.10 СВ 2 н/о н/о +30.5 +22.9 64 +40 +40 очень
душно
1009.2 1008.7 +38.6
14 19.10 ЮВ 3 н/о н/о +29.3 +23.0 69 +39 +39 очень
душно
1009.1 1008.6
15 19.10 ЮВ 4 н/о н/о +28.9 +22.6 69 +38 +38 очень
душно
1009.0 1008.5
16 19.10 В 3 н/о н/о +28.3 +22.5 71 +37 +37 очень
душно
1008.4 1007.9
17 19.10 В 3 н/о н/о +28.3 +23.4 75 +38 +38 очень
душно
1008.3 1007.8
18 19.10 ЮВ 4 н/о н/о +27.9 +23.9 79 +39 +39 очень
душно
1008.8 1008.3
19 19.10 ЮВ 4 н/о н/о +27.9 +24.3 81 +39 +39 очень
душно
1009.1 1008.6
20 19.10 В 3 н/о н/о +27.5 +24.1 82 +38 +38 очень
душно
1009.5 1009.0
21 19.10 В 2 н/о н/о +27.3 +24.4 84 +38 +38 очень
душно
1010.4 1009.9
22 19.10 В 3 н/о н/о +28.7 +24.5 78 +41 +41 опасность
перегрева
1011.4 1010.9
23 19.10 З 2 н/о н/о +30.8 +23.7 66 +42 +42 опасность
перегрева
1012.1 1011.6
00 20.10 ЮЗ 2 н/о н/о +32.4 +22.5 56 +42 +42 опасность
перегрева
1012.6 1012.1
01 20.10 ЮЗ 3 н/о н/о +33.8 +21.6 49 +42 +42 опасность
перегрева
1012.4 1011.9 +27.2
02 20.10 СЗ 5 н/о н/о +35.8 +20.5 41 +42 +42 опасность
перегрева
1011.7 1011.2
03 20.10 З 4 н/о н/о +37.0 +19.0 35 +42 +42 опасность
перегрева
1010.7 1010.2
04 20.10 С 2 н/о н/о +38.4 +17.7 30 +42 +42 опасность
перегрева
1009.4 1008.9
05 20.10 В 4 н/о н/о +38.9 +16.5 27 +41 +41 опасность
перегрева
1008.1 1007.6
06 20.10 В 4 н/о н/о +27.8 +22.1 71 +36 +36 очень
душно
1009.7 1009.2
07 20.10 С 6 н/о в посл. час дождь {туман} н/о +31.1 +20.7 54 +38 +38 очень
душно
1008.0 1007.5
08 20.10 С 5 н/о н/о +34.4 +18.0 38 +38 +38 очень
душно
1008.4 1007.9
09 20.10 СВ 3 н/о н/о +32.5 +19.0 45 +38 +38 очень
душно
1008.8 1008.3
10 20.10 С 7 н/о {туман} н/о +31.4 +23.0 61 +42 +42 опасность
перегрева
1010.2 1009.7
11 20.10 С 7 н/о н/о +29.6 +21.5 62 +38 +38 очень
душно
1010.8 1010.3
12 20.10 Ю 2 н/о н/о +29.6 +20.7 59 +37 +37 очень
душно
1011.2 1010.7
13 20.10 З 3 н/о {туман} н/о +29.6 +21.5 62 +38 +38 очень
душно
1011.1 1010.6 +40.3
14 20.10 З 3 н/о н/о +28.9 +22.6 69 +38 +38 очень
душно
1011.1 1010.6
15 20.10 штиль 0 н/о н/о +28.1 +22.6 72 +37 +37 очень
душно
1010.9 1010.4
16 20.10 С 2 н/о н/о +27.4 +22.6 75 +36 +36 очень
душно
1010.5 1010.0
17 20.10 штиль 0 н/о н/о +27.1 +22.1 74 +35 +35 очень
душно
1010.3 1009.8
18 20.10 В 3 н/о н/о +26.9 +22.1 75 +35 +35 очень
душно
1010.1 1009.6
19 20.10 СВ 2 н/о н/о +26.3 +21.9 77 +34 +34 очень
душно
1010.5 1010.0
20 20.10 В 2 н/о н/о +26.0 +21.7 77 +33 +33 очень
душно
1010.6 1010.1
21 20.10 В 2 н/о н/о +27.0 +22.8 78 +36 +36 очень
душно
1011.4 1010.9
22 20.10 В 2 н/о н/о +29.4 +22.6 67 +39 +39 очень
душно
1012.3 1011.8
23 20.10 ЮВ 4 н/о н/о +31.7 +22.7 59 +41 +41 опасность
перегрева
1013.2 1012.7
00 21.10 В 7 н/о н/о +35.5 +19.4 39 +41 +41 опасность
перегрева
1013.4 1012.9

 

Местоположение метеостанции Wyndham Aero (Западная Австралия, Австралия): широта -15.50 долгота 128.15 высота над уровнем моря 4 м.

В архиве по умолчанию представлена погода в Wyndham Aero за последнюю неделю. Архивные данные за месяц целиком и за предыдущие месяцы, начиная с января 2011 года, Вы можете получить, выбрав интересующий диапазон дат из раскрывающегося списка и нажав кнопку "Ввод!".

Внимание! Время в таблицах - всемирное. Для получения местного времени необходимо прибавить поправку, которая в Wyndham Aero равна 8 ч.

Смотрите также архив погоды в соседних городах и на ближайших метеорологических станциях:

Погода в Kununurra (Западная Австралия, Австралия) (68 км)
Погода в Argyle Aero (Западная Австралия, Австралия) (130 км)
Погода в Port Keats Aero (Северная территория, Австралия) (203 км)
Погода в Kalumburu (Западная Австралия, Австралия) (209 км)
Погода в Truscott (Западная Австралия, Австралия) (247 км)
Погода в Troughton Island (Западная Австралия, Австралия) (290 км)
Погода в Manbulloo Csiro (Северная территория, Австралия) (291 км)
Погода в Halls Creek Airport (Западная Австралия, Австралия) (308 км)
Погода в Victoria River Downs (Северная территория, Австралия) (323 км)
Погода в Cape Don Lighthouse (Северная территория, Австралия) (375 км)

Пояснения к столбцам:

Ветер - указаны скорость ветра в м/с - средняя за 10 мин, порывы в срок и между сроками (в фигурных скобках) и направление, откуда дует ветер: С - северный, СВ - северо-восточный, В - восточный, ЮВ - юго-восточный, Ю - южный, ЮЗ - юго-западный, З - западный, СЗ - северо-западный.
Видимость - горизонтальная дальность видимости в метрах или километрах. При видимости от 1 до 10 км при отсутствии осадков обычно наблюдается дымка, при ухудшении видимости до 1 км и менее - туман. В сухую погоду видимость может ухудшаться дымом, пылью или мглою.
Явления - указаны атмосферные явления, наблюдавшиеся в срок или в последний час перед сроком; фигурными скобками обозначены явления, наблюдавшиеся между сроками (за 1-3 часа до срока); квадратными скобками обозначены град или гололедные отложения с указанием их диаметра в мм.
Облачность - указаны через наклонную черту общая и нижняя облачность в баллах и высота нижней границы облаков в метрах; квадратными скобками обозначены формы облаков: Ci - перистые, Cs - перисто-слоистые, Cc - перисто-кучевые, Ac - высококучевые, As - высокослоистые, Sc - слоисто-кучевые, Ns - слоисто-дождевые, Cu - кучевые, Cb - кучево-дождевые. Подробнее классификацию облаков см. в Атласе облаков (PDF).
T - Температура воздуха - температура, измеренная на высоте 2 м над землей.
Td - Температура точки росы - температура, при понижении до которой содержащийся в воздухе водяной пар достигнет насыщения.
f - Относительная влажность воздуха - влажноcть воздуха, измеренная на высоте 2 м над землей.
Te - Эффективная температура - температура, которую ощущает одетый по сезону человек в тени. Характеристика душности погоды. При расчете учитывается влияние влажности воздуха и скорости ветра на теплоощущения человека.
Tes - Эффективная температура на солнце - температура, которую ощущает человек, с поправкой на солнечный нагрев. Характеристика знойности погоды. Зависит от высоты солнца над горизонтом, облачности и скорости ветра. Ночью, в пасмурную погоду, а также при ветре 12 м/с и более поправка равна нулю.
P - Атмосферное давление - приведенное к уровню моря атмосферное давление.
Po - Атмосферное давление - измеренное на уровне метеостанции атмосферное давление.
Tmin - Минимальная температура - минимум температуры воздуха на высоте 2 м над землей.
Tmax - Максимальная температура - максимум температуры воздуха на высоте 2 м над землей.
R - Количество осадков - Количество выпавших осадков за период времени, мм. При наведении курсора мыши на число - период времени, за который выпало указанное количество осадков.
R24 - Количество осадков - Количество выпавших осадков за 24 часа, мм.
S - Снежный покров - Высота снежного покрова, см. При наведении курсора мыши на число - состояние снежного покрова и степень покрытия местности в баллах.